Time,TemperatureF,DewpointF,PressureIn,WindDirection,WindDirectionDegrees,WindSpeedMPH,WindSpeedGustMPH,Humidity,HourlyPrecipIn,Conditions,Clouds,dailyrainin,SoftwareType,DateUTC
2013-01-19 00:14:00,39.7,30.4,30.36,South,173,2.0,3.0,69,0.00,,,0.00,VWS V14.01,2013-01-19 06:14:00,
2013-01-19 00:29:00,39.6,30.3,30.36,South,176,2.0,5.0,69,0.00,,,0.00,VWS V14.01,2013-01-19 06:29:00,
2013-01-19 00:44:00,39.6,30.6,30.35,SSE,156,5.0,5.0,70,0.00,,,0.00,VWS V14.01,2013-01-19 06:44:00,
2013-01-19 00:59:00,39.7,30.7,30.35,South,179,2.0,5.0,70,0.00,,,0.00,VWS V14.01,2013-01-19 06:59:00,
2013-01-19 01:14:00,39.7,30.7,30.36,SSE,157,2.0,5.0,70,0.00,,,0.00,VWS V14.01,2013-01-19 07:14:00,
2013-01-19 01:29:00,39.3,30.7,30.35,SE,146,3.0,5.0,71,0.00,,,0.00,VWS V14.01,2013-01-19 07:29:00,
2013-01-19 01:44:00,39.0,30.8,30.35,SSW,201,1.0,5.0,72,0.00,,,0.00,VWS V14.01,2013-01-19 07:44:00,
2013-01-19 01:59:00,39.0,30.8,30.35,South,174,3.0,7.0,72,0.00,,,0.00,VWS V14.01,2013-01-19 07:59:00,
2013-01-19 02:14:00,38.6,30.4,30.35,SSE,158,1.0,4.0,72,0.00,,,0.00,VWS V14.01,2013-01-19 08:14:00,
2013-01-19 02:29:00,38.5,30.6,30.35,South,179,0.0,4.0,73,0.00,,,0.00,VWS V14.01,2013-01-19 08:29:00,
2013-01-19 02:44:00,38.3,30.4,30.34,SSE,167,0.0,4.0,73,0.00,,,0.00,VWS V14.01,2013-01-19 08:44:00,
2013-01-19 02:59:00,37.9,30.0,30.34,South,185,0.0,3.0,73,0.00,,,0.00,VWS V14.01,2013-01-19 08:59:00,
2013-01-19 03:14:00,37.7,29.8,30.34,South,190,0.0,3.0,73,0.00,,,0.00,VWS V14.01,2013-01-19 09:14:00,
2013-01-19 03:29:00,37.6,29.7,30.34,South,176,0.0,3.0,73,0.00,,,0.00,VWS V14.01,2013-01-19 09:29:00,
2013-01-19 03:44:00,37.5,29.6,30.34,South,188,0.0,2.0,73,0.00,,,0.00,VWS V14.01,2013-01-19 09:44:00,
2013-01-19 03:59:00,37.6,29.4,30.33,SSE,156,2.0,4.0,72,0.00,,,0.00,VWS V14.01,2013-01-19 09:59:00,
2013-01-19 04:14:00,38.1,29.9,30.33,SSW,204,0.0,4.0,72,0.00,,,0.00,VWS V14.01,2013-01-19 10:14:00,
2013-01-19 04:29:00,38.5,29.9,30.33,SSE,152,2.0,4.0,71,0.00,,,0.00,VWS V14.01,2013-01-19 10:29:00,
2013-01-19 04:44:00,38.8,30.2,30.33,SSE,165,0.0,5.0,71,0.00,,,0.00,VWS V14.01,2013-01-19 10:44:00,
2013-01-19 04:59:00,38.9,30.3,30.33,South,179,1.0,7.0,71,0.00,,,0.00,VWS V14.01,2013-01-19 10:59:00,
2013-01-19 05:14:00,38.8,30.2,30.33,SSW,210,1.0,5.0,71,0.00,,,0.00,VWS V14.01,2013-01-19 11:14:00,
2013-01-19 06:59:00,37.9,30.0,30.32,ESE,119,1.0,5.0,73,0.00,,,0.00,VWS V14.01,2013-01-19 12:59:00,
2013-01-19 07:14:00,37.6,29.7,30.32,SE,130,0.0,4.0,73,0.00,,,0.00,VWS V14.01,2013-01-19 13:14:00,
2013-01-19 07:29:00,38.5,30.3,30.32,South,181,0.0,4.0,72,0.00,,,0.00,VWS V14.01,2013-01-19 13:29:00,
2013-01-19 07:44:00,39.4,30.4,30.32,South,186,2.0,7.0,70,0.00,,,0.00,VWS V14.01,2013-01-19 13:44:00,
2013-01-19 07:59:00,39.9,30.9,30.32,SSW,210,1.0,7.0,70,0.00,,,0.00,VWS V14.01,2013-01-19 13:59:00,
2013-01-19 08:14:00,40.6,31.2,30.32,South,181,2.0,6.0,69,0.00,,,0.00,VWS V14.01,2013-01-19 14:14:00,
2013-01-19 08:29:00,41.5,31.7,30.33,SSW,210,1.0,8.0,68,0.00,,,0.00,VWS V14.01,2013-01-19 14:29:00,
2013-01-19 08:44:00,42.8,31.9,30.33,SSE,156,2.0,8.0,65,0.00,,,0.00,VWS V14.01,2013-01-19 14:44:00,
2013-01-19 08:59:00,44.3,32.5,30.34,SE,146,5.0,8.0,63,0.00,,,0.00,VWS V14.01,2013-01-19 14:59:00,
2013-01-19 09:14:00,45.2,32.6,30.34,South,180,4.0,10.0,61,0.00,,,0.00,VWS V14.01,2013-01-19 15:14:00,
2013-01-19 09:29:00,46.5,33.0,30.34,SSW,193,2.0,8.0,59,0.00,,,0.00,VWS V14.01,2013-01-19 15:29:00,
2013-01-19 09:44:00,47.5,33.0,30.34,SSE,158,3.0,8.0,57,0.00,,,0.00,VWS V14.01,2013-01-19 15:44:00,
2013-01-19 09:59:00,48.7,33.7,30.34,SSE,151,2.0,7.0,56,0.00,,,0.00,VWS V14.01,2013-01-19 15:59:00,
2013-01-19 10:14:00,49.3,33.8,30.34,SW,224,4.0,9.0,55,0.00,,,0.00,VWS V14.01,2013-01-19 16:14:00,
2013-01-19 10:29:00,50.2,34.2,30.34,SSW,208,2.0,8.0,54,0.00,,,0.00,VWS V14.01,2013-01-19 16:29:00,
2013-01-19 10:44:00,51.2,33.7,30.33,South,186,7.0,13.0,51,0.00,,,0.00,VWS V14.01,2013-01-19 16:44:00,
2013-01-19 10:59:00,52.2,33.6,30.32,South,176,10.0,10.0,49,0.00,,,0.00,VWS V14.01,2013-01-19 16:59:00,
2013-01-19 11:14:00,53.0,32.2,30.31,SSW,193,8.0,14.0,45,0.00,,,0.00,VWS V14.01,2013-01-19 17:14:00,
2013-01-19 11:29:00,53.4,31.5,30.31,South,169,10.0,12.0,43,0.00,,,0.00,VWS V14.01,2013-01-19 17:29:00,
2013-01-19 11:44:00,54.3,31.7,30.30,South,180,8.0,13.0,42,0.00,,,0.00,VWS V14.01,2013-01-19 17:44:00,
2013-01-19 11:59:00,54.4,32.4,30.28,SSW,201,3.0,13.0,43,0.00,,,0.00,VWS V14.01,2013-01-19 17:59:00,
2013-01-19 12:14:00,54.7,32.1,30.27,South,189,3.0,11.0,42,0.00,,,0.00,VWS V14.01,2013-01-19 18:14:00,
2013-01-19 12:44:00,55.4,33.3,30.26,SW,218,5.0,13.0,43,0.00,,,0.00,VWS V14.01,2013-01-19 18:44:00,
2013-01-19 12:59:00,55.7,33.0,30.25,SW,219,6.0,14.0,42,0.00,,,0.00,VWS V14.01,2013-01-19 18:59:00,
2013-01-19 13:14:00,55.5,34.0,30.24,South,180,3.0,11.0,44,0.00,,,0.00,VWS V14.01,2013-01-19 19:14:00,
2013-01-19 13:44:00,55.6,34.6,30.23,South,184,6.0,14.0,45,0.00,,,0.00,VWS V14.01,2013-01-19 19:44:00,
2013-01-19 13:59:00,56.1,35.1,30.22,SW,233,3.0,12.0,45,0.00,,,0.00,VWS V14.01,2013-01-19 19:59:00,
2013-01-19 14:14:00,56.0,34.4,30.22,South,176,10.0,14.0,44,0.00,,,0.00,VWS V14.01,2013-01-19 20:14:00,
2013-01-19 14:29:00,56.3,34.1,30.21,SSW,193,5.0,12.0,43,0.00,,,0.00,VWS V14.01,2013-01-19 20:29:00,
2013-01-19 14:44:00,56.3,34.7,30.21,South,169,4.0,12.0,44,0.00,,,0.00,VWS V14.01,2013-01-19 20:44:00,
2013-01-19 14:59:00,56.5,34.9,30.21,SSW,205,4.0,11.0,44,0.00,,,0.00,VWS V14.01,2013-01-19 20:59:00,
2013-01-19 15:14:00,56.0,35.0,30.21,SSW,198,4.0,10.0,45,0.00,,,0.00,VWS V14.01,2013-01-19 21:14:00,
2013-01-19 15:44:00,55.8,35.9,30.21,SSE,148,1.0,9.0,47,0.00,,,0.00,VWS V14.01,2013-01-19 21:44:00,
2013-01-19 15:59:00,56.0,36.1,30.20,SSW,208,4.0,6.0,47,0.00,,,0.00,VWS V14.01,2013-01-19 21:59:00,
2013-01-19 16:14:00,55.6,35.2,30.19,SSE,165,6.0,11.0,46,0.00,,,0.00,VWS V14.01,2013-01-19 22:14:00,
2013-01-19 16:29:00,55.2,35.3,30.19,South,173,3.0,10.0,47,0.00,,,0.00,VWS V14.01,2013-01-19 22:29:00,
2013-01-19 16:44:00,54.2,35.5,30.20,SSW,210,0.0,7.0,49,0.00,,,0.00,VWS V14.01,2013-01-19 22:44:00,
2013-01-19 16:59:00,53.1,35.0,30.20,South,191,2.0,7.0,50,0.00,,,0.00,VWS V14.01,2013-01-19 22:59:00,
2013-01-19 17:14:00,52.2,34.6,30.19,SSW,193,2.0,5.0,51,0.00,,,0.00,VWS V14.01,2013-01-19 23:14:00,
2013-01-19 17:29:00,51.5,34.5,30.19,SSW,201,2.0,7.0,52,0.00,,,0.00,VWS V14.01,2013-01-19 23:29:00,
2013-01-19 17:44:00,50.8,33.8,30.19,South,188,3.0,5.0,52,0.00,,,0.00,VWS V14.01,2013-01-19 23:44:00,
2013-01-19 17:59:00,50.1,33.7,30.18,South,186,2.0,5.0,53,0.00,,,0.00,VWS V14.01,2013-01-19 23:59:00,
2013-01-19 18:14:00,49.6,33.7,30.19,SSW,200,5.0,7.0,54,0.00,,,0.00,VWS V14.01,2013-01-20 00:14:00,
2013-01-19 18:29:00,49.0,34.0,30.19,South,184,0.0,5.0,56,0.00,,,0.00,VWS V14.01,2013-01-20 00:29:00,
2013-01-19 18:59:00,48.5,35.3,30.19,SSW,204,3.0,6.0,60,0.00,,,0.00,VWS V14.01,2013-01-20 00:59:00,
2013-01-19 19:14:00,48.3,35.9,30.19,SSE,157,0.0,9.0,62,0.00,,,0.00,VWS V14.01,2013-01-20 01:14:00,
2013-01-19 19:29:00,47.9,35.9,30.20,SW,219,2.0,4.0,63,0.00,,,0.00,VWS V14.01,2013-01-20 01:29:00,
2013-01-19 19:44:00,47.6,36.4,30.20,SSE,159,1.0,4.0,65,0.00,,,0.00,VWS V14.01,2013-01-20 01:44:00,
2013-01-19 19:59:00,47.5,36.7,30.20,SW,215,1.0,6.0,66,0.00,,,0.00,VWS V14.01,2013-01-20 01:59:00,
2013-01-19 20:14:00,47.3,36.9,30.20,South,186,3.0,6.0,67,0.00,,,0.00,VWS V14.01,2013-01-20 02:14:00,
2013-01-19 20:29:00,47.2,36.8,30.20,SSW,199,0.0,8.0,67,0.00,,,0.00,VWS V14.01,2013-01-20 02:29:00,
2013-01-19 20:44:00,46.7,36.7,30.20,South,179,2.0,4.0,68,0.00,,,0.00,VWS V14.01,2013-01-20 02:44:00,
2013-01-19 20:59:00,46.4,36.8,30.20,SSW,203,5.0,5.0,69,0.00,,,0.00,VWS V14.01,2013-01-20 02:59:00,
2013-01-19 21:14:00,45.9,36.7,30.21,SSW,194,2.0,5.0,70,0.00,,,0.00,VWS V14.01,2013-01-20 03:14:00,
2013-01-19 21:29:00,45.4,36.6,30.21,South,191,1.0,4.0,71,0.00,,,0.00,VWS V14.01,2013-01-20 03:29:00,
2013-01-19 21:59:00,43.5,35.8,30.22,South,191,0.0,0.0,74,0.00,,,0.00,VWS V14.01,2013-01-20 03:59:00,
2013-01-19 22:29:00,40.7,35.0,30.22,SSW,193,0.0,0.0,80,0.00,,,0.00,VWS V14.01,2013-01-20 04:29:00,
2013-01-19 22:44:00,40.7,35.3,30.22,South,184,0.0,0.0,81,0.00,,,0.00,VWS V14.01,2013-01-20 04:44:00,
2013-01-19 22:59:00,42.4,36.4,30.22,SSW,206,0.0,3.0,79,0.00,,,0.00,VWS V14.01,2013-01-20 04:59:00,
2013-01-19 23:14:00,43.5,36.5,30.21,SSE,168,0.0,3.0,76,0.00,,,0.00,VWS V14.01,2013-01-20 05:14:00,
2013-01-19 23:29:00,43.9,36.8,30.21,SSW,210,1.0,3.0,76,0.00,,,0.00,VWS V14.01,2013-01-20 05:29:00,
2013-01-19 23:44:00,44.2,36.8,30.21,WSW,245,2.0,4.0,75,0.00,,,0.00,VWS V14.01,2013-01-20 05:44:00,
2013-01-19 23:59:00,44.2,36.8,30.21,South,186,0.0,4.0,75,0.00,,,0.00,VWS V14.01,2013-01-20 05:59:00,